Wind_Speed
20 26 29 29 27 25 23 23 22 19 17 14 11 10 7 8 5 3 2 2 1 2 5 2 2 3 1 1 2 2 3 1 2 2 3 3 3 3 2 3 6 7 7 4 4 4 9 5 3 5 4 3 1 1
16 21 28 29 30 29 26 25 25 21 17 13 9 6 5 7 7 6 4 5 6 3 4 7 10 10 8 10 2 3 4 2 4 1 2 1 2 1 4 3 1 2 6 5 9 6 4 6 1 3 2 3 2 2
18 14 16 25 28 27 28 26 28 21 14 11 9 7 7 7 8 8 5 5 1 2 4 1 5 5 6 15 10 2 2 3 1 4 3 1 4 2 4 5 5 4 4 3 1 4 6 4 3 2 3 4 5 5
10 10 5 11 19 20 18 13 10 9 7 6 6 6 7 8 6 8 8 8 5 3 3 5 4 3 2 4 9 13 5 2 1 1 2 3 2 4 3 3 3 4 2 1 5 6 8 4 4 4 6 5 5 5
3 5 4 5 8 9 8 8 5 4 7 7 6 4 5 5 5 4 5 6 10 4 2 3 15 11 9 14 15 12 11 4 3 2 3 4 3 2 3 2 5 4 7 6 14 11 6 9 6 6 5 5 5 4
4 2 6 4 5 8 10 8 7 7 4 3 3 3 3 4 3 1 0 4 8 3 1 3 3 1 1 3 6 8 10 4 3 3 3 3 5 3 3 4 5 8 8 15 12 8 7 7 4 3 3 5 3 4
4 3 6 4 6 4 4 5 5 5 5 5 5 5 5 4 3 2 2 3 1 5 2 3 4 1 2 2 2 1 1 2 2 2 3 2 3 5 3 11 2 3 5 9 9 2 7 1 3 5 3 5 6 7
8 6 4 3 5 6 4 3 5 4 3 3 4 4 5 5 5 4 7 6 4 2 1 3 4 3 2 1 0 0 0 0 2 2 1 2 1 2 5 2 3 13 16 12 5 2 3 6 4 4 6 6 5 5
11 9 7 7 8 7 6 5 4 3 3 3 2 2 2 2 1 1 2 2 6 1 2 2 2 3 1 1 1 1 1 2 2 3 3 4 4 7 5 5 8 6 5 5 1 2 4 4 6 6 5 6 5 6
15 11 10 10 8 8 7 6 6 5 3 2 3 1 1 2 2 2 2 2 2 2 2 2 0 3 2 1 1 1 2 2 2 3 2 3 6 4 4 10 8 5 5 4 3 4 4 5 5 6 6 6 6 7
15 13 13 12 10 10 9 8 7 4 4 2 2 1 2 2 2 1 1 2 2 2 3 3 4 3 2 2 3 3 3 2 3 4 4 3 3 5 4 4 6 6 6 4 1 3 5 6 6 7 8 10 13 15
18 17 16 13 12 11 9 9 7 6 4 4 5 3 2 3 3 1 2 2 1 3 1 1 1 1 2 1 2 2 2 0 5 2 2 2 4 4 5 5 6 7 6 4 4 6 10 10 12 10 10 13 17 20
21 19 18 17 14 14 13 12 10 8 10 5 4 4 3 3 2 5 5 4 0 2 2 1 0 0 2 1 2 2 3 4 1 1 3 3 3 4 4 4 5 7 9 7 9 14 16 14 19 14 13 19 21 20
22 21 20 20 17 16 15 13 11 11 3 3 3 1 5 3 4 4 4 4 3 3 3 1 1 2 2 3 3 4 4 2 3 3 4 1 3 4 4 5 7 14 16 13 12 15 16 17 19 23 23 21 18 19
21 20 19 17 16 15 14 14 13 5 3 2 4 4 5 4 2 3 2 2 1 3 2 1 2 2 2 1 2 3 4 4 4 3 1 4 7 6 6 7 10 11 11 10 17 16 18 21 19 20 21 22 22 25
22 17 16 18 17 17 14 19 11 4 3 3 1 2 3 2 3 0 2 3 2 3 2 2 2 3 4 3 2 6 4 5 4 3 3 4 6 7 8 9 11 18 18 18 19 20 21 21 20 22 24 25 27 29
23 8 20 21 20 18 21 11 4 2 4 2 4 2 3 2 4 3 4 4 7 4 3 3 3 9 1 2 3 3 5 5 4 4 3 6 9 10 9 10 14 16 16 18 19 21 22 28 27 20 14 27 30 29
15 20 18 23 22 20 10 5 4 4 7 6 2 3 3 3 3 2 3 3 4 3 3 5 3 3 5 4 4 5 6 5 4 8 11 12 12 19 20 13 21 20 19 21 22 24 25 22 17 17 23 27 27 27
23 23 21 27 26 10 6 5 5 5 7 3 2 2 2 2 3 5 3 7 8 4 3 1 3 4 7 8 12 13 11 8 10 12 10 19 23 21 21 24 22 20 18 21 21 20 22 24 24 26 26 23 18 24
23 23 24 28 26 5 4 3 7 3 4 4 2 2 3 3 3 3 5 3 4 3 2 4 6 11 11 13 11 10 10 8 5 9 12 12 22 19 21 19 18 22 20 22 23 23 20 20 23 22 22 22 20 21
24 18 21 27 12 13 4 3 4 4 2 2 2 4 3 2 1 2 3 4 2 3 4 7 12 13 18 22 24 20 15 14 11 11 13 12 21 20 22 25 25 21 17 18 10 17 22 20 25 25 23 24 24 25
9 19 13 18 5 8 3 9 3 3 3 3 1 2 1 1 2 3 2 2 4 5 6 11 12 12 12 12 16 23 24 26 25 22 26 23 13 12 11 20 16 9 15 19 19 16 23 27 26 24 22 26 24 25
14 12 7 5 2 3 2 6 2 4 3 3 2 1 2 2 4 1 2 4 4 8 16 14 20 25 14 24 25 25 27 25 11 17 21 21 24 25 22 25 22 16 10 22 22 23 24 29 27 24 24 24 22 21
9 4 3 4 3 3 1 1 2 2 2 2 3 3 4 4 1 2 4 3 8 10 10 13 11 7 10 11 8 9 23 22 19 21 23 18 10 15 22 25 26 27 26 25 24 24 26 26 25 23 21 21 20 18
6 0 4 1 1 3 2 1 2 3 4 5 5 4 4 2 3 3 4 4 8 10 7 7 6 8 9 11 10 19 28 20 11 11 23 20 21 21 22 25 27 31 24 22 22 23 25 24 23 22 21 19 19 20
2 4 9 6 2 5 5 5 6 6 3 4 6 3 2 3 1 6 4 5 7 5 6 6 7 8 8 9 11 11 22 26 24 8 23 23 23 16 11 13 13 22 23 25 26 22 23 24 22 22 21 22 23 23
3 5 3 2 3 3 1 1 0 3 5 7 4 3 3 3 7 5 4 3 3 12 22 22 18 11 10 14 24 26 29 28 25 24 31 31 30 30 26 17 16 33 32 26 27 26 24 23 21 19 20 21 21 21
5 4 7 5 3 1 5 3 5 6 5 3 3 4 7 8 8 5 5 14 23 28 29 31 30 25 25 27 28 28 28 28 29 30 29 30 31 31 32 32 32 34 33 29 27 27 27 26 24 22 21 20 19 19
4 2 4 5 1 2 6 7 6 5 5 5 5 7 8 8 11 10 23 24 26 20 15 18 25 22 26 27 28 29 28 23 7 15 18 13 13 18 22 25 25 25 26 26 27 22 20 20 22 23 23 23 23 20
5 4 3 4 7 8 6 8 5 4 3 6 3 7 10 12 24 28 29 25 18 15 22 22 22 17 12 11 12 19 22 17 19 13 12 14 14 19 20 21 22 22 22 23 25 25 24 20 19 19 18 16 15 15
3 3 0 3 6 7 10 4 3 1 2 4 5 10 16 12 23 25 23 26 24 20 14 10 14 11 10 11 6 6 12 18 15 20 25 27 28 27 24 24 24 23 22 21 20 20 22 21 19 18 17 17 17 13
3 7 5 4 5 4 3 2 3 4 3 3 6 3 2 2 3 3 3 6 3 7 7 13 11 11 19 21 21 20 21 26 27 27 27 27 27 27 28 27 27 26 24 22 19 18 19 18 18 17 16 17 16 15
1 1 0 2 4 4 3 2 3 4 2 2 3 1 1 4 6 3 4 4 6 9 14 13 16 22 24 21 21 25 25 29 30 28 30 30 29 29 28 24 21 20 20 20 18 18 16 14 14 15 15 15 14 13
Wind_Direction
267 262 263 251 244 242 245 250 255 264 271 279 289 299 309 299 291 281 267 262 217 244 284 234 198 168 345 123 166 263 15 301 83 181 192 250 217 254 293 162 177 163 158 195 183 211 261 158 107 174 206 250 305 64
300 271 252 251 248 247 248 251 251 256 259 254 260 272 277 282 274 229 265 256 251 213 248 291 269 250 237 233 189 220 188 187 210 154 246 237 253 234 174 248 199 236 196 177 186 208 264 188 221 230 356 15 24 325
334 307 261 244 248 252 246 246 243 235 236 238 238 235 241 266 258 228 229 243 188 258 276 1 255 242 254 237 235 239 287 216 208 184 176 228 263 146 211 238 202 224 190 228 169 237 231 189 237 114 162 204 243 253
350 348 315 238 236 221 184 188 202 198 214 218 222 233 244 232 233 222 218 243 219 282 261 268 187 185 171 242 233 232 231 277 112 163 192 204 204 188 252 277 214 213 70 259 263 290 300 316 7 333 332 343 9 5
23 36 43 106 129 138 153 160 184 213 217 207 215 217 239 253 248 235 240 218 212 197 282 288 314 284 264 244 219 210 213 197 194 193 215 236 196 222 208 256 228 181 244 255 267 283 272 292 284 309 4 345 322 339
273 125 105 115 136 137 142 149 166 180 230 246 234 205 235 249 253 228 228 229 227 201 335 289 292 210 104 198 228 228 214 195 208 200 187 208 191 199 242 237 215 210 224 239 265 280 272 261 262 68 315 314 310 303
306 308 238 162 121 131 149 164 189 202 210 233 248 265 263 255 225 205 180 132 213 184 101 288 297 236 117 56 22 22 272 243 221 226 207 213 197 200 226 252 151 269 276 265 279 218 268 102 284 315 309 302 317 313
254 237 222 207 206 193 188 199 190 187 206 242 256 253 260 264 258 263 249 242 179 188 218 254 273 331 142 177 246 284 294 329 232 240 206 191 253 225 250 22 201 241 250 264 159 125 218 261 288 312 322 329 326 312
242 220 211 209 204 195 180 175 183 176 190 217 223 231 165 198 197 161 190 204 198 228 206 234 196 267 21 1 33 336 258 242 220 233 215 195 197 228 240 228 250 222 187 174 215 344 12 6 326 323 319 318 307 295
227 216 209 201 197 188 178 180 173 169 188 189 171 142 22 193 178 144 120 65 30 321 271 241 188 262 117 163 265 235 193 251 266 222 197 237 248 244 210 232 239 177 155 113 47 6 9 332 321 306 290 279 268 274
221 209 209 202 193 193 187 187 179 155 146 168 133 136 142 155 132 22 211 178 156 247 223 242 200 209 256 164 219 210 210 237 252 251 176 254 272 244 271 56 87 95 75 50 335 289 275 259 268 269 280 274 274 277
219 212 208 204 202 204 203 185 176 171 160 138 116 111 124 61 34 174 227 308 224 226 193 209 233 211 294 19 218 281 216 53 247 178 206 261 256 12 85 90 86 76 73 35 346 284 291 278 274 265 270 277 286 292
215 214 211 199 198 193 187 187 180 157 139 119 69 48 60 313 136 164 204 276 220 191 130 140 262 224 306 276 255 269 245 236 16 249 240 231 346 36 25 26 32 11 359 340 324 312 304 296 300 284 269 282 284 285
211 207 209 201 196 194 195 182 168 154 117 98 110 200 155 280 235 201 188 183 226 114 151 154 262 201 226 223 232 254 236 263 264 223 211 327 89 63 22 14 337 314 302 290 288 286 275 269 272 276 277 284 283 282
208 198 196 196 192 193 184 177 162 154 133 125 95 217 213 220 245 185 169 76 292 144 109 45 354 88 297 326 222 3 350 243 214 223 169 190 187 190 217 234 251 266 273 278 274 270 276 282 280 283 284 289 288 286
194 190 192 188 182 180 174 158 155 181 75 87 203 234 251 63 290 29 150 189 215 144 106 60 119 42 264 184 53 228 129 233 249 216 216 213 236 248 269 270 264 266 269 275 272 265 263 268 273 274 284 288 288 290
179 188 189 183 180 170 164 145 138 117 160 160 249 221 165 164 196 204 170 206 171 150 195 126 149 222 355 331 286 212 213 238 231 259 233 232 271 278 265 260 266 264 263 265 265 265 263 270 269 269 271 275 281 282
185 184 177 180 167 156 166 161 133 167 227 224 176 215 187 202 189 209 198 165 126 178 122 208 142 142 206 214 244 245 255 251 256 279 284 276 272 274 279 280 279 274 270 270 268 268 267 265 264 266 267 266 267 271
185 178 174 174 166 154 157 188 176 199 218 208 219 191 182 232 226 207 183 198 197 179 118 77 211 205 225 237 248 257 263 261 262 272 276 275 274 277 278 274 275 273 270 267 272 273 276 275 270 271 270 272 266 271
179 187 188 180 174 138 171 213 183 173 211 216 130 185 185 200 188 200 210 169 180 148 194 215 227 243 248 254 255 258 259 262 256 272 273 275 278 277 271 270 272 274 272 277 276 276 276 275 273 270 267 264 264 268
185 185 187 180 182 191 176 167 195 216 213 183 227 153 224 12 187 202 228 161 121 209 221 227 246 254 252 254 264 273 271 264 260 263 271 278 281 277 275 274 271 268 263 270 271 275 280 272 276 278 274 272 270 269
158 180 187 190 197 184 207 179 172 175 143 198 121 133 133 250 242 235 178 139 217 225 233 253 258 262 265 268 263 263 262 265 267 265 268 272 276 277 275 274 272 265 264 263 267 264 265 269 271 271 268 269 272 271
155 156 147 158 192 183 209 148 150 173 166 205 128 78 255 228 223 79 217 219 235 244 247 246 250 259 258 265 270 269 266 265 267 267 270 269 267 269 272 271 264 254 259 267 268 265 264 270 273 271 268 268 268 270
107 114 142 161 158 159 78 112 108 140 156 160 165 232 241 215 104 81 234 241 246 254 250 250 251 260 270 261 259 262 266 265 260 264 260 260 265 269 262 263 269 265 256 261 268 266 265 266 269 268 264 262 263 262
91 267 120 194 3 110 146 186 201 193 231 209 203 251 243 124 177 212 218 251 251 256 249 247 242 240 246 262 270 271 271 259 252 256 266 258 263 268 271 272 272 269 268 260 261 260 261 263 262 259 258 252 253 261
145 231 178 184 211 185 182 181 203 211 182 189 229 260 49 106 130 242 219 237 248 233 236 227 242 256 255 240 255 266 271 271 254 245 266 273 264 263 270 275 278 278 278 270 264 259 258 260 261 258 257 256 261 268
185 245 227 217 151 127 159 303 15 136 185 205 222 155 130 211 240 240 244 245 229 249 261 253 240 242 253 267 270 272 274 270 261 264 277 279 276 275 267 262 268 276 287 282 269 260 260 267 265 261 257 262 260 255
207 172 177 185 203 168 173 183 184 212 229 210 116 177 200 208 249 252 243 273 273 280 281 281 276 265 262 268 275 281 281 278 279 281 281 278 273 270 267 265 266 272 278 278 275 275 273 268 267 267 264 261 267 266
214 215 121 187 178 189 206 198 216 223 192 162 195 244 249 246 266 278 281 282 286 284 270 283 288 285 283 285 285 283 278 276 277 282 283 283 287 283 281 280 277 275 277 281 289 279 275 279 278 274 270 266 273 281
225 174 162 174 176 215 229 190 229 232 203 214 231 276 275 271 272 276 278 283 279 273 278 281 283 290 284 287 292 296 297 293 280 265 278 283 290 305 311 303 295 291 287 277 273 276 280 281 281 280 280 278 277 273
148 118 167 204 225 233 246 227 257 249 234 224 211 246 265 284 295 291 271 270 270 275 285 306 313 317 309 304 296 298 299 304 295 292 291 289 288 289 289 290 290 289 290 292 277 273 276 271 266 271 278 281 283 284
169 196 188 243 273 281 10 190 226 217 263 214 248 211 297 37 277 282 13 359 43 64 19 347 324 316 317 309 304 294 287 292 295 298 297 293 289 286 285 284 282 280 277 273 273 269 270 264 264 267 272 277 283 287
45 77 114 313 316 297 293 100 343 311 323 287 273 325 219 187 232 265 19 79 74 17 347 334 327 322 320 315 313 314 311 308 307 303 302 301 300 300 299 297 292 283 274 266 261 259 261 262 261 264 265 268 275 279
Height
815 817 820 822 822 821 823 825 829 830 830 829 828 829 830 832 831 832 832 831 831 832 828 823 822 824 827 828 831 828 831 829 834 834 835 829 828 817 814 818 825 828 842 844 836 838 825 793 797 796 793 790 789 791
809 807 809 812 816 819 818 821 823 823 824 823 822 824 827 828 829 829 831 830 830 831 826 825 821 822 821 821 827 823 822 825 827 832 831 827 822 824 818 821 807 818 804 815 813 807 789 793 787 788 789 790 789 790
804 801 798 801 804 810 814 816 819 819 818 820 821 819 821 824 826 826 826 828 828 828 823 820 817 815 817 820 820 825 824 819 819 821 826 828 828 823 821 819 800 795 796 800 794 785 786 788 787 789 790 790 789 787
804 802 799 795 798 800 806 812 817 817 818 818 818 819 821 819 819 822 822 825 828 826 824 815 811 812 813 815 814 816 818 818 817 817 818 819 821 818 819 809 808 800 794 796 798 789 783 782 784 785 785 785 785 783
804 804 804 802 800 802 807 807 815 821 822 817 817 815 819 821 819 817 819 819 820 824 819 818 813 809 808 808 808 808 810 813 815 815 815 811 810 812 810 811 805 795 790 792 783 783 785 784 784 783 783 784 783 783
804 805 805 804 806 804 807 811 812 815 825 824 820 814 818 819 819 819 818 820 820 819 821 819 812 807 807 808 808 807 809 809 810 806 806 803 803 805 806 808 787 782 782 781 780 782 783 781 780 782 782 781 780 780
805 802 804 805 807 809 809 810 814 815 815 817 818 821 820 817 816 819 818 819 819 819 821 819 816 805 805 809 808 807 808 807 806 804 802 801 800 800 798 785 783 780 778 778 778 780 779 779 780 779 779 778 777 777
803 803 803 804 806 807 809 811 812 811 814 817 818 818 818 816 816 814 819 820 817 818 820 821 818 813 807 809 810 809 809 807 804 803 802 800 800 797 787 778 776 773 769 773 778 779 780 780 778 777 777 776 776 775
803 801 801 804 805 806 805 808 812 811 814 816 815 816 814 817 815 813 816 819 818 822 823 817 818 825 810 811 809 810 809 805 801 796 799 797 790 782 773 777 775 771 771 772 775 776 776 777 778 777 777 777 776 774
800 800 800 803 804 804 804 809 809 810 813 812 817 815 814 815 814 818 816 817 819 820 819 816 814 819 813 811 811 812 809 803 797 794 795 786 776 774 773 769 768 770 770 772 775 777 777 779 779 778 776 774 773 772
794 795 799 801 802 805 805 809 809 808 809 813 811 814 816 817 813 819 818 820 818 819 814 811 816 817 809 814 813 810 811 808 800 797 797 792 789 775 766 768 769 772 774 775 777 777 777 777 777 776 773 770 768 766
790 791 794 797 801 804 805 806 807 807 809 810 811 813 814 813 822 825 832 825 818 814 811 809 812 811 810 808 809 807 806 807 795 794 794 796 779 775 775 775 776 777 777 776 776 777 775 774 772 770 768 766 763 760
783 789 793 795 797 801 804 809 807 805 808 807 809 817 822 828 824 842 847 833 829 813 808 812 813 812 811 811 808 805 803 799 794 795 782 786 785 783 783 782 781 779 778 775 774 772 771 769 766 763 760 756 754 753
781 784 789 792 793 799 803 804 803 804 806 811 822 825 836 846 830 821 818 816 810 810 809 812 817 813 809 809 804 798 793 793 797 797 782 783 783 783 784 786 785 783 778 773 769 766 764 761 758 755 753 751 749 746
776 780 784 787 791 795 799 798 802 805 804 816 821 831 831 812 815 812 810 809 809 808 810 815 819 817 822 821 811 811 815 808 790 793 785 783 777 776 776 775 772 771 768 765 762 760 758 755 751 749 747 743 741 738
772 779 781 784 788 791 794 798 803 804 805 813 816 815 814 817 819 814 813 811 805 807 808 814 827 833 824 824 823 818 827 817 792 786 780 776 775 772 770 769 766 764 761 759 756 753 750 747 745 741 738 736 733 731
769 771 774 780 786 790 793 797 801 804 808 811 811 804 805 808 807 802 800 799 799 804 818 824 821 821 820 831 822 804 804 783 780 778 773 770 768 765 763 760 758 756 753 750 747 743 741 738 735 734 731 727 724 721
763 766 771 777 783 789 793 795 798 803 801 799 804 798 795 794 795 793 793 794 799 805 808 815 808 816 812 801 805 785 778 772 769 765 762 761 758 754 752 751 747 744 742 740 737 735 732 729 728 724 720 717 714 710
758 764 770 774 779 785 790 793 794 800 794 795 791 789 789 788 786 785 787 789 791 793 799 805 805 811 786 774 769 764 764 764 760 756 755 751 748 746 744 740 738 735 733 729 727 724 721 719 716 712 709 708 706 702
756 761 767 772 776 782 786 786 786 788 790 782 782 786 783 781 779 780 781 785 788 794 799 795 781 768 764 757 756 755 752 753 755 752 746 741 738 738 733 731 728 725 723 719 716 714 712 709 704 703 701 699 697 692
755 758 766 769 772 775 776 777 779 779 782 782 779 778 780 778 779 781 782 779 789 784 784 770 758 751 748 746 746 746 745 745 743 741 737 734 728 728 723 719 718 716 714 709 707 704 702 698 695 694 691 688 686 684
748 755 761 765 765 766 767 766 768 769 776 777 780 779 787 785 783 778 770 778 778 764 757 749 746 743 741 741 738 737 736 733 731 730 727 726 721 714 712 709 709 706 703 699 699 697 691 686 685 683 682 678 677 675
748 752 756 760 761 760 761 761 764 765 767 770 774 778 779 778 770 765 771 766 756 746 740 738 734 733 734 731 729 727 725 724 721 719 716 713 708 705 704 699 698 696 691 685 688 686 682 677 676 675 673 671 669 666
746 751 753 757 758 759 762 761 763 765 766 768 772 776 773 767 767 777 775 761 740 732 732 729 729 729 726 723 722 717 713 711 710 706 704 703 698 694 693 687 684 682 680 678 676 675 672 668 667 665 664 662 661 659
749 755 756 759 760 762 766 769 765 764 764 767 769 766 762 768 775 785 764 749 730 723 722 721 721 720 719 714 709 705 702 702 700 697 689 691 688 684 679 676 673 669 671 670 665 663 660 659 657 655 654 653 652 650
762 758 754 763 763 759 764 770 762 763 767 773 768 767 773 777 778 756 745 723 715 714 712 712 711 709 706 704 700 695 691 690 688 686 679 679 677 675 671 667 662 655 659 658 655 652 650 647 646 645 643 643 643 643
763 761 753 750 752 755 760 761 760 767 777 770 766 771 774 775 760 733 715 708 706 700 699 698 699 698 695 689 687 684 680 678 677 673 669 666 664 663 661 658 652 645 647 647 645 643 640 638 637 636 634 633 633 634
745 747 747 747 752 753 758 764 765 763 753 746 750 763 756 744 716 705 700 696 696 693 691 689 687 687 684 680 677 674 670 667 665 662 658 654 651 648 646 644 641 639 637 636 635 633 631 630 629 628 627 625 625 626
733 738 740 747 754 755 749 745 742 732 723 730 734 721 715 704 695 693 689 689 688 686 684 680 675 677 674 671 668 665 662 660 660 656 651 644 638 636 637 633 631 630 628 626 625 624 623 622 621 620 619 618 617 617
730 730 737 747 742 738 726 721 718 712 710 709 707 701 695 688 686 688 683 680 679 676 674 672 670 670 667 665 662 658 655 655 653 650 643 636 631 630 629 628 626 623 620 618 616 615 615 615 614 613 613 612 612 612
722 728 732 733 727 710 704 706 705 705 705 704 701 699 688 683 674 675 674 670 668 668 668 667 666 665 664 662 661 657 649 646 644 642 639 633 628 624 622 619 617 615 613 611 609 608 607 607 607 607 608 607 607 607
720 720 723 730 717 708 708 708 708 706 702 701 689 692 688 693 694 675 668 668 667 668 669 668 666 663 661 658 655 652 648 642 638 633 629 624 620 616 612 609 607 605 604 603 602 601 601 600 601 602 603 602 602 603
724 725 726 724 719 713 709 707 712 711 708 706 697 694 688 686 685 673 670 669 670 670 669 666 664 660 656 653 649 645 641 636 631 626 621 616 612 608 604 601 599 598 596 596 595 595 595 596 597 597 598 598 598 598